Jones - eastern half: Past 24 Hour Conditions

 

Hall Beach Airport

05:00 PM EDT 23 October 2014
This table is a summary of hourly weather conditions for the past 24 hours.
Date / Time
(EDT)
Wind(knots) Conditions Visibility(km) Pressure(kPa) Air tempC) Relative humidity(%) Dew pointC) Wind Chill
23 October 2014
17:00 NW 22 Blowing Snow 4 102.1 -15 88 -17 -27
16:00 NW 19 Blowing Snow 10 102.0 -15 86 -17 -27
15:00 NW 27 gust 32 Light Snow 2 102.0 -15 84 -17 -29
14:00 WNW 28 Light Snow 1 101.9 -15 87 -17 -29
13:00 WNW 24 Light Snow 8 101.9 -15 86 -17 -28
12:00 WNW 24 Light Snow 2 101.9 -16 87 -17 -29
11:00 WNW 25 gust 30 Light Snow 2 101.9 -16 88 -18 -30
10:00 WNW 27 gust 33 Light Snow 1 101.9 -16 87 -18 -30
9:00 WNW 25 Light Snow 3 101.9 -17 86 -19 -31
8:00 NW 23 Light Snow 8 101.9 -17 85 -19 -31
7:00 WNW 23 Mist 5 101.9 -17 85 -19 -31
6:00 NW 13 Cloudy 16 101.9 -19 85 -21 -30
5:00 NW 16 Clear 16 101.9 -22 82 -24 -35
4:00 NW 21 Mist 10 101.8 -20 81 -23 -34
3:00 NW 11 gust 18 Clear 16 101.8 -22 82 -24 -33
2:00 NNW 17 gust 23 Clear 11 101.8 -22 81 -24 -35
1:00 NW 19 Clear 16 101.7 -22 80 -25 -37
0:00 WNW 14 gust 19 Clear 16 101.7 -24 81 -26 -37
22 October 2014
23:00 NW 20 Clear 16 101.6 -23 82 -26 -38
22:00 NW 22 Mist 6 101.6 -23 83 -25 -38
21:00 NW 21 gust 26 Mist 5 101.6 -22 82 -25 -37
20:00 NW 17 Light Snow 19 101.5 -22 83 -24 -35
19:00 NW 16 Drifting Snow 24 101.5 -21 82 -24 -34
18:00 NW 19 Drifting Snow 24 101.4 -20 84 -22 -34
17:00 NW 16 Drifting Snow 24 101.3 -19 85 -21 -31
 
Map of Arctic - Eastern Arctic marine weather areas Baker Lake Airport Chesterfield Inlet Airport Coral Harbour Airport Gjoa Haven Airport Kugaaruk Airport Rankin Inlet Airport Shepherd Bay Airport Whale Cove Airport Arctic Bay Brevoort Island Qikiqtarjuaq Airport Cape Dorset Airport Cape Dyer Cape Hooper Clyde Airport Grise Fiord Airport Hall Beach Airport Igloolik Airport Iqaluit Airport Longstaff Bluff Pangnirtung Airport Pond Inlet Airport Repulse Bay Airport Resolute Airport Resolution Island Rowley Island Airport Taloyoak Airport Wager Bay Akulivik Airport Ivujivik Airport Puvirnituq Airport Kangiqsujuaq Airport Kangirsuk Airport Quaqtaq Airport Tasiujaq Airport Cape Kakkiviak Cape Kiglapait Nain Airport Saglek Cape Mercy Kimmirut Airport Aupaluk Airport Salluit Airport Kangiqsualujjuaq Airport Fort Ross
Legend: buoyBuoy land stationLand Station